Tracking 28126 objects as of 2-Oct-2023
HD Live streaming from Space Station
objects crossing your sky now

STARLINK-2496

Track STARLINK-2496 now!
10-day predictions
STARLINK-2496 is classified as:


NORAD ID: 48486
Int'l Code: 2021-040BL
Perigee: 558.3 km
Apogee: 560.3 km
Inclination: 53.1 °
Period: 95.7 minutes
Semi major axis: 6930 km
RCS: Unknown
Launch date: May 9, 2021
Source: United States (US)
Launch site: AIR FORCE EASTERN TEST RANGE (AFETR)
Your satellite tracking list
Your tracking list is empty




NASA's NSSDC Master Catalog

Two Line Element Set (TLE):
1 48486U 21040BL  23274.91667824  .00016541  00000-0  11762-2 0  9994
2 48486  53.0540 235.9925 0001469  96.4988 233.0520 15.04792858133515
Source of the keplerian elements: AFSPC